Regional Weather Roundup
Issued by NWS Jackson, KY

Home | Current Version | Previous Version | Graphics & Text | Print | Product List | Glossary On
Versions: 1 2 3 4 5 6 7 8 9 10 11 12 13 14 15 16 17 18 19 20 21 22 23 24 25 26 27 28 29 30 31 32 33 34 35 36 37 38 39 40 41 42 43 44 45 46 47 48 49 50
474
ASUS43 KJKL 261110
RWRJKL

EAST KENTUCKY HOURLY WEATHER ROUNDUP
NATIONAL WEATHER SERVICE JACKSON KY
700 AM EDT THU MAY 26 2016

NOTE: "FAIR" INDICATES FEW OR NO CLOUDS BELOW 12,000 FEET WITH
NO SIGNIFICANT WEATHER AND/OR OBSTRUCTIONS TO VISIBILITY.

* THESE REPORTS ARE NOT UNDER NWS QUALITY CONTROL AND MAY NOT
  REPORT WEATHER SUCH AS PRECIPITATION AND FOG.

KYZ079-080-083-085-087-088-110-112-115-119-120-261200
...EASTERN KENTUCKY...

CITY           SKY/WX    TMP DP  RH WIND       PRES   REMARKS
JACKSON        MOCLDY    67  59  75 VRB3      30.17R
LONDON         LGT RAIN  63  61  93 CALM      30.20R FOG
SOMERSET*      RAIN      63  63 100 CALM      30.18F
MONTICELLO*    LGT RAIN  64  62  93 VRB7      30.17F
WILLIAMSBURG*  CLOUDY    63  63 100 S5        30.20F
MIDDLESBORO*   CLOUDY    64  61  90 CALM      30.21R
HARLAN APT*      N/A     63  59  88 SW5       30.20R
HAZARD APT*    MOSUNNY   68  61  77 SW8G17    30.17R
BLACK MTN*       N/A     61  55  82 S8          N/A
PIKE CO APT*   MOCLDY    67  60  77 CALM      30.16R
BIG SANDY APT* CLOUDY    68  60  75 CALM      30.15R
MOREHEAD APT*  CLOUDY    68  63  83 SW9       30.15R
ASHLAND*       CLOUDY    64  64 100 CALM      30.09R
$$

KYZ035-036-041-042-044-050-067-078-099-261200
...CENTRAL KENTUCKY...

CITY           SKY/WX    TMP DP  RH WIND       PRES   REMARKS
MT STERLING*   LGT RAIN  64  64 100 W8        30.15R
FLEMING/MASON* CLOUDY   N/A N/A N/A S6        30.13R
DANVILLE*      RAIN      63  63 100 S3        30.17R
RICHMOND*      CLOUDY    64  61  88 S7        30.16R
LEXINGTON      LGT RAIN  65  63  93 S10       30.14R
FRANKFORT      CLOUDY    67  62  84 S7        30.10R
LOUISVILLE     MOCLDY    68  63  84 SE8       30.06F
LEBANON*         N/A     64  64 100 SE10      30.12S
GLASGOW*       PTCLDY    64  64  99 S3        30.11R
BOWLING GREEN  MOCLDY    65  62  90 E3        30.09S
$$

KYZ091>093-OHZ055-061-077-WVZ005-015-034-035-042-261200
...SOUTHERN OHIO/WEST VIRGINIA...

CITY           SKY/WX    TMP DP  RH WIND       PRES   REMARKS
COVINGTON      MOCLDY    66  63  90 S9        30.08R
COLUMBUS       CLOUDY    66  62  87 SE3       30.06S
DAYTON         CLOUDY    67  62  84 SW12      30.06S
WILMINGTON     PTCLDY    65  62  90 S7        30.07S
HUNTINGTON       N/A     65  63  93 CALM      30.12R
CHARLESTON     CLOUDY    66  61  84 CALM      30.14S
PINEVILLE*     CLOUDY    62  59  88 MISG      30.24R
BECKLEY        CLOUDY    63  56  78 CALM      30.23R
BLUEFIELD      LGT RAIN  62  56  80 W10       30.26R
LOGAN CO APT*    N/A     64  63  94 CALM      30.16S
$$

VAZ002-007-008-TNZ017-027-036-066-071-261200
...SOUTHWEST VIRGINIA/EAST TENNESSEE...

CITY           SKY/WX    TMP DP  RH WIND       PRES   REMARKS
WISE*          CLOUDY    66  52  59 CALM      30.24R
JONESVILLE*      N/A     63  61  94 CALM      30.22R
ABINGDON*      CLOUDY    67  62  83 E3        30.22S
BRISTOL        CLOUDY    64  62  93 CALM      30.20R FOG
SEVIERVILLE*   PTSUNNY   63  59  88 CALM      30.18R
KNOXVILLE      LGT RAIN  67  60  78 S3        30.18R
OAK RIDGE      CLOUDY    69  60  73 VRB3      30.19R
CROSSVILLE     CLOUDY    63  61  93 SE3       30.21S
NASHVILLE      MOCLDY    66  62  87 S5        30.11S
$$

...KEY TO REMARKS...
VSB - VISIBILITY IN MILES
WCI - WIND CHILL INDEX
HX  - HEAT INDEX

$$




USA.gov is the U.S. government's official web portal to all federal, state and local government web resources and services.